Location: Belvedere Heights
(33.9836°N, 117.3109°W)
Time: 07:00:06
(UTC+00:00)

ARIANE 5 R/B - Pass Details

Date: 10 December 2023
Orbit: 747 x 794 km, 98.8° (Epoch: 25 February)

Event Time Altitude Azimuth Distance (km) Brightness Sun altitude
Rises 11:49:25 0° 24° (NNE) 3,298 6.0 -35.3°
Reaches altitude 10° 11:51:59 10° 34° (NE) 2,366 5.3 -34.8°
Maximum altitude 11:56:39 33° 98° (E) 1,322 4.1 -33.8°
Drops below altitude 10° 12:01:18 10° 161° (SSE) 2,350 5.3 -32.8°
Sets 12:03:49 0° 171° (S) 3,271 6.0 -32.3°
